This is the latest recevied weather packets stored in our database for station/object K5MGY. If no packets are shown the sender has not sent any weather packets the latest 10 day(s).
| Time | Temp. | Humidity | Pressure | Rain* | Wind** | Luminosity | Snow |
|---|---|---|---|---|---|---|---|
| 1778018630 | 32.78° C | 51% | 1027.3 hPa | 0 mm | - | 105 W/m² | - |
| 1778018327 | 32.78° C | 50% | 1027.3 hPa | 0 mm | - | 85 W/m² | - |
| 1778018025 | 33.33° C | 49% | 1027.3 hPa | 0 mm | - | 106 W/m² | - |
| 1778017723 | 33.33° C | 49% | 1027.2 hPa | 0 mm | - | 81 W/m² | - |
| 1778017420 | 33.33° C | 48% | 1027.4 hPa | 0 mm | - | 83 W/m² | - |
| 1778017117 | 33.33° C | 50% | 1027.5 hPa | 0 mm | - | 89 W/m² | - |
| 1778016815 | 33.33° C | 50% | 1027.3 hPa | 0 mm | - | 136 W/m² | - |
| 1778016511 | 33.33° C | 49% | 1027.5 hPa | 0 mm | - | 116 W/m² | - |
| 1778016208 | 32.78° C | 50% | 1027.8 hPa | 0 mm | - | 104 W/m² | - |
| 1778015904 | 33.33° C | 50% | 1027.8 hPa | 0 mm | - | 142 W/m² | - |
| 1778015602 | 32.78° C | 51% | 1027.9 hPa | 0 mm | - | 120 W/m² | - |
| 1778015298 | 32.78° C | 53% | 1028 hPa | 0 mm | - | 244 W/m² | - |
| 1778014995 | 33.33° C | 53% | 1027.8 hPa | 0 mm | - | 391 W/m² | - |
| 1778014692 | 33.33° C | 51% | 1028.1 hPa | 0 mm | - | 430 W/m² | - |
| 1778014391 | 32.78° C | 51% | 1028 hPa | 0 mm | - | 463 W/m² | - |
| 1778014087 | 32.78° C | 50% | 1028.2 hPa | 0 mm | - | 149 W/m² | - |
| 1778013785 | 32.22° C | 53% | 1028.2 hPa | 0 mm | - | 130 W/m² | - |
| 1778013481 | 32.22° C | 54% | 1028.2 hPa | 0 mm | - | 205 W/m² | - |
| 1778013178 | 32.22° C | 53% | 1028.4 hPa | 0 mm | - | 181 W/m² | - |
| 1778012874 | 32.22° C | 53% | 1028.4 hPa | 0 mm | - | 204 W/m² | - |
| 1778012571 | 32.22° C | 54% | 1028.4 hPa | 0 mm | - | 176 W/m² | - |
| 1778012267 | 32.22° C | 52% | 1028.5 hPa | 0 mm | - | 207 W/m² | - |
| 1778011965 | 32.78° C | 53% | 1028.6 hPa | 0 mm | - | 376 W/m² | - |
| 1778011664 | 32.78° C | 53% | 1028.7 hPa | 0 mm | - | 293 W/m² | - |
| 1778011360 | 32.78° C | 54% | 1028.7 hPa | 0 mm | - | 355 W/m² | - |
* Rain latest hour (hover to see other rain measurements)
** Current wind speed in m/s (hover to see current wind gust speed)